Satellite: GOLIAT Catalog number: 38085 Epoch time: 14065.86690039 Element set: 862 Inclination: 069.4625 deg RA of node: 261.9001 deg Eccentricity: 0.0480873 Arg of perigee: 144.2481 deg Mean anomaly: 219.2448 deg Mean motion: 14.79642485 rev/day Decay rate: 1.11529e-03 rev/day^2 Epoch rev: 10800 Checksum: 316
Satellite: HORYU-2 Catalog number: 38340 Epoch time: 14064.85614672 Element set: 783 Inclination: 098.2502 deg RA of node: 020.4142 deg Eccentricity: 0.0012712 Arg of perigee: 138.7550 deg Mean anomaly: 221.4613 deg Mean motion: 14.71970150 rev/day Decay rate: 4.183e-05 rev/day^2 Epoch rev: 9659 Checksum: 281
Satellite: RS-40 Catalog number: 38735 Epoch time: 14065.14107873 Element set: 506 Inclination: 082.4814 deg RA of node: 351.7951 deg Eccentricity: 0.0017458 Arg of perigee: 116.8039 deg Mean anomaly: 243.4834 deg Mean motion: 12.42557015 rev/day Decay rate: 2.4e-07 rev/day^2 Epoch rev: 7278 Checksum: 300
Satellite: PROITERES Catalog number: 38756 Epoch time: 14065.34066133 Element set: 639 Inclination: 098.2301 deg RA of node: 151.9552 deg Eccentricity: 0.0012626 Arg of perigee: 358.1207 deg Mean anomaly: 001.9952 deg Mean motion: 14.74715090 rev/day Decay rate: 2.136e-05 rev/day^2 Epoch rev: 8002 Checksum: 277
Satellite: BEESAT-3 Catalog number: 39134 Epoch time: 14065.42435175 Element set: 519 Inclination: 064.8720 deg RA of node: 103.4383 deg Eccentricity: 0.0018990 Arg of perigee: 327.2783 deg Mean anomaly: 032.7158 deg Mean motion: 15.03471161 rev/day Decay rate: 1.2911e-04 rev/day^2 Epoch rev: 4820 Checksum: 284
Satellite: BEESAT-2 Catalog number: 39136 Epoch time: 14065.58579055 Element set: 510 Inclination: 064.8720 deg RA of node: 103.1406 deg Eccentricity: 0.0018816 Arg of perigee: 326.5499 deg Mean anomaly: 033.4409 deg Mean motion: 15.03091002 rev/day Decay rate: 1.1225e-04 rev/day^2 Epoch rev: 4822 Checksum: 273
Satellite: LO-75 Catalog number: 39382 Epoch time: 14065.66540847 Element set: 141 Inclination: 040.4997 deg RA of node: 346.5132 deg Eccentricity: 0.0008758 Arg of perigee: 247.5639 deg Mean anomaly: 112.3981 deg Mean motion: 15.30006652 rev/day Decay rate: 8.2870e-04 rev/day^2 Epoch rev: 1627 Checksum: 322
Satellite: ZACUBE-1 Catalog number: 39417 Epoch time: 14064.78636731 Element set: 236 Inclination: 097.7838 deg RA of node: 138.9433 deg Eccentricity: 0.0061873 Arg of perigee: 218.1449 deg Mean anomaly: 141.5344 deg Mean motion: 14.77581021 rev/day Decay rate: 4.285e-05 rev/day^2 Epoch rev: 1542 Checksum: 317
Satellite: TRITON-1 Catalog number: 39427 Epoch time: 14065.75189895 Element set: 89 Inclination: 097.7727 deg RA of node: 137.7673 deg Eccentricity: 0.0118261 Arg of perigee: 215.8224 deg Mean anomaly: 143.4991 deg Mean motion: 14.64946444 rev/day Decay rate: 3.794e-05 rev/day^2 Epoch rev: 1539 Checksum: 354
Satellite: DELFIN3XT Catalog number: 39428 Epoch time: 14065.72647189 Element set: 93 Inclination: 097.7711 deg RA of node: 137.3316 deg Eccentricity: 0.0129653 Arg of perigee: 216.7448 deg Mean anomaly: 142.4762 deg Mean motion: 14.62581346 rev/day Decay rate: 6.073e-05 rev/day^2 Epoch rev: 1535 Checksum: 319
Satellite: GOMX-1 Catalog number: 39430 Epoch time: 14065.75163660 Element set: 281 Inclination: 097.7697 deg RA of node: 136.3669 deg Eccentricity: 0.0156624 Arg of perigee: 219.0715 deg Mean anomaly: 139.9028 deg Mean motion: 14.56391381 rev/day Decay rate: 3.630e-05 rev/day^2 Epoch rev: 1530 Checksum: 312
Satellite: $50SAT Catalog number: 39436 Epoch time: 14064.99413641 Element set: 117 Inclination: 097.7882 deg RA of node: 140.3908 deg Eccentricity: 0.0029500 Arg of perigee: 227.0263 deg Mean anomaly: 132.8309 deg Mean motion: 14.86585841 rev/day Decay rate: 2.8532e-04 rev/day^2 Epoch rev: 1552 Checksum: 311
Satellite: LO-74 Catalog number: 39440 Epoch time: 14065.75242540 Element set: 87 Inclination: 097.7800 deg RA of node: 139.0386 deg Eccentricity: 0.0084159 Arg of perigee: 214.2736 deg Mean anomaly: 145.3001 deg Mean motion: 14.72566048 rev/day Decay rate: 4.204e-05 rev/day^2 Epoch rev: 1550 Checksum: 291
Satellite: PUCPSAT-1 Catalog number: 39442 Epoch time: 14065.19546914 Element set: 84 Inclination: 097.7885 deg RA of node: 140.6020 deg Eccentricity: 0.0034180 Arg of perigee: 222.9847 deg Mean anomaly: 136.8734 deg Mean motion: 14.85319377 rev/day Decay rate: 6.656e-05 rev/day^2 Epoch rev: 1433 Checksum: 320
Satellite: SHINAISAT Catalog number: 39572 Epoch time: 14065.68497258 Element set: 18 Inclination: 065.0128 deg RA of node: 036.2611 deg Eccentricity: 0.0011879 Arg of perigee: 282.5940 deg Mean anomaly: 077.3888 deg Mean motion: 15.59177208 rev/day Decay rate: 5.7701e-04 rev/day^2 Epoch rev: 107 Checksum: 318
Satellite: OPUSAT Catalog number: 39575 Epoch time: 14065.74396491 Element set: 20 Inclination: 065.0160 deg RA of node: 036.0219 deg Eccentricity: 0.0006999 Arg of perigee: 305.1477 deg Mean anomaly: 054.9538 deg Mean motion: 15.60413048 rev/day Decay rate: 5.6108e-04 rev/day^2 Epoch rev: 108 Checksum: 291
Satellite: TEIKYOSAT Catalog number: 39576 Epoch time: 14065.68107565 Element set: 15 Inclination: 065.0124 deg RA of node: 036.2348 deg Eccentricity: 0.0007970 Arg of perigee: 291.8158 deg Mean anomaly: 068.2662 deg Mean motion: 15.60761625 rev/day Decay rate: 2.12389e-03 rev/day^2 Epoch rev: 107 Checksum: 299
Satellite: IFT-1 Catalog number: 39577 Epoch time: 14064.33121169 Element set: 18 Inclination: 065.0125 deg RA of node: 040.8312 deg Eccentricity: 0.0005236 Arg of perigee: 318.3473 deg Mean anomaly: 041.7278 deg Mean motion: 15.61076446 rev/day Decay rate: 8.5436e-04 rev/day^2 Epoch rev: 86 Checksum: 281
Satellite: INVADER Catalog number: 39578 Epoch time: 14064.45796428 Element set: 14 Inclination: 065.0124 deg RA of node: 040.3853 deg Eccentricity: 0.0004428 Arg of perigee: 319.6127 deg Mean anomaly: 040.4690 deg Mean motion: 15.61864630 rev/day Decay rate: 1.57984e-03 rev/day^2 Epoch rev: 88 Checksum: 304
Satellite: STARS-II Catalog number: 39579 Epoch time: 14063.82239603 Element set: 11 Inclination: 065.0112 deg RA of node: 042.6025 deg Eccentricity: 0.0008858 Arg of perigee: 289.6369 deg Mean anomaly: 070.3398 deg Mean motion: 15.59821087 rev/day Decay rate: 8.4006e-04 rev/day^2 Epoch rev: 78 Checksum: 305
/EX
participants (1)
-
Ray Hoad